User: anonymous   Login
Location: Caltech
(34.1382°N, 118.1253°W)
Time: 18:17:14
(UTC-08:00)
Language:

SEDSat Delta rocket - Orbit

View from above orbital plane
View from above orbital plane
View from above satellite
View from above satellite

Ground track
Ground track

The orbit data is extracted from the following two-line orbital elements,

1 25510U 98061C   14321.77456819  .00001474  00000-0  25366-3 0    54
2 25510 031.4330 142.3878 0332242 008.3519 059.7671 14.35989749841674
Epoch (UTC): 17 November 2014 18:35:22
Eccentricity: 0.0332242
inclination: 31.4330°
perigee height: 534 km
apogee height: 1009 km
right ascension of ascending node: 142.3878°
argument of perigee: 8.3519°
revolutions per day: 14.35989749
mean anomaly at epoch: 59.7671°
orbit number at epoch: 84167

The dashed part of the orbit path shows where the satellite is in the earth's shadow,  

DLR